This is the latest recevied weather packets stored in our database for station/object KE5WTH-14. If no packets are shown the sender has not sent any weather packets the latest 10 day(s).
| Time | Temp. | Humidity | Pressure | Rain* | Wind** | Luminosity | Snow |
|---|---|---|---|---|---|---|---|
| 1778248915 | 16.67° C | 91% | 1014.6 hPa | 0 mm | - | 195 W/m² | - |
| 1778248886 | 16.67° C | 91% | 1014.6 hPa | 0 mm | - | 178 W/m² | - |
| 1778248856 | 16.67° C | 91% | 1014.6 hPa | 0 mm | - | 160 W/m² | - |
| 1778248829 | 16.67° C | 91% | 1014.6 hPa | 0 mm | - | 148 W/m² | - |
| 1778248649 | 16.67° C | 91% | 1014.5 hPa | 0 mm | - | 148 W/m² | - |
| 1778248590 | 16.67° C | 91% | 1014.6 hPa | 0 mm | - | 137 W/m² | - |
| 1778248529 | 16.67° C | 91% | 1014.6 hPa | 0 mm | - | 111 W/m² | - |
| 1778248470 | 16.67° C | 91% | 1014.5 hPa | 0 mm | - | 100 W/m² | - |
| 1778248409 | 16.67° C | 91% | 1014.6 hPa | 0 mm | - | 92 W/m² | - |
| 1778248290 | 16.67° C | 91% | 1014.8 hPa | 0 mm | - | 86 W/m² | - |
| 1778248229 | 16.67° C | 91% | 1014.7 hPa | 0 mm | - | 104 W/m² | - |
| 1778248168 | 16.67° C | 91% | 1014.8 hPa | 0 mm | - | 114 W/m² | - |
| 1778248108 | 16.67° C | 91% | 1014.8 hPa | 0 mm | - | 114 W/m² | - |
| 1778248049 | 16.67° C | 91% | 1014.7 hPa | 0 mm | - | 107 W/m² | - |
| 1778247987 | 16.67° C | 91% | 1014.7 hPa | 0 mm | - | 104 W/m² | - |
| 1778247921 | 16.67° C | 91% | 1014.7 hPa | 0 mm | - | 100 W/m² | - |
| 1778247855 | 16.67° C | 92% | 1014.7 hPa | 0 mm | - | 93 W/m² | - |
| 1778247794 | 16.11° C | 91% | 1014.7 hPa | 0 mm | - | 83 W/m² | - |
| 1778247732 | 16.11° C | 91% | 1014.6 hPa | 0 mm | - | 76 W/m² | - |
| 1778247671 | 16.11° C | 91% | 1014.6 hPa | 0.25 mm | - | 74 W/m² | - |
| 1778247609 | 16.11° C | 91% | 1014.6 hPa | 0.51 mm | - | 69 W/m² | - |
| 1778247549 | 16.11° C | 91% | 1014.6 hPa | 1.02 mm | - | 67 W/m² | - |
| 1778247488 | 16.11° C | 91% | 1014.7 hPa | 1.02 mm | - | 65 W/m² | - |
| 1778247424 | 16.11° C | 91% | 1014.6 hPa | 1.02 mm | - | 67 W/m² | - |
| 1778247365 | 16.11° C | 91% | 1014.6 hPa | 1.02 mm | - | 69 W/m² | - |
* Rain latest hour (hover to see other rain measurements)
** Current wind speed in m/s (hover to see current wind gust speed)